Regional Weather Roundup
Issued by NWS

Home | Current Version | Previous Version | Graphics & Text | Print | Product List | Glossary Off
Versions: 1 2 3 4 5 6 7 8 9 10 11 12 13 14 15 16 17 18 19 20 21 22 23 24 25 26 27 28 29 30 31 32 33 34 35 36 37 38 39 40 41 42 43 44 45 46 47 48 49 50

000
ASUS43 KMKX 310410
RWRWI

WISCONSIN REGIONAL WEATHER ROUNDUP
NATIONAL WEATHER SERVICE MILWAUKEE/SULLIVAN WI
1000 PM CST FRI JAN 30 2015

NOTE: "FAIR" INDICATES FEW OR NO CLOUDS BELOW 12,000 FEET WITH NO
SIGNIFICANT WEATHER AND/OR OBSTRUCTIONS TO VISIBILITY.

WIZ001-002-006>008-014>016-023>028-310500-
NORTHWEST WISCONSIN

CITY           SKY/WX    TMP DP  RH WIND       PRES   REMARKS
SUPERIOR ARPT  CLOUDY    18   9  67 CALM      30.19F
ASHLAND        CLOUDY    18   7  62 S8        30.20F WCI   8
HAYWARD        CLOUDY    17   7  64 S7        30.19F WCI   8
SIREN          CLOUDY    19  11  72 SE7       30.19F WCI  10
CUMBERLAND     CLOUDY    16   9  73 SE3       30.20F
RICE LAKE      CLOUDY    16   8  71 E3        30.23S
CHETEK         MOCLDY    14   7  74 CALM      30.22F
LADYSMITH      CLOUDY    17   8  67 SE3       30.24F
EAU CLAIRE     MOCLDY    17   6  62 SE5       30.23F WCI  10
MENOMONIE      CLEAR     16   8  71 E5        30.23F WCI   9
NEW RICHMOND   CLOUDY    19  14  80 SE3       30.20S
OSCEOLA        CLOUDY    22  16  78 E3        30.23S
$$

WIZ003>005-009-010-017-018-310500-
NORTH CENTRAL WISCONSIN

CITY           SKY/WX    TMP DP  RH WIND       PRES   REMARKS
MANITOWISH WTR CLOUDY    14   5  66 SW7       30.18R WCI   4
ARBOR VITAE    CLOUDY    17   8  67 SW8       30.18S WCI   6
WOODRUFF       CLOUDY    17   8  67 SW8       30.18S WCI   6
RHINELANDER    CLOUDY    13   5  70 S9        30.18F WCI   1
EAGLE RIVER    MOCLDY    15   4  63 CALM      30.16F
LAND O LAKES   CLOUDY    16   5  63 SW9       30.17S WCI   4
PHILLIPS       CLOUDY    14   5  67 S6        30.19F WCI   5
TOMAHAWK       CLOUDY    12   5  74 CALM      30.21S
MEDFORD        CLOUDY    13   6  71 S6        30.20S WCI   4
MERRILL        CLOUDY    13   6  76 CALM      30.22F
$$

WIZ029-030-035-036-043>047-310500-
CENTRAL WISCONSIN

CITY           SKY/WX    TMP DP  RH WIND       PRES   REMARKS
WAUSAU         CLOUDY    15   5  64 S7        30.22F WCI   5
MOSINEE        MOCLDY    12   7  79 S7        30.24F WCI   2
MARSHFIELD     CLOUDY    15   6  67 CALM      30.24F
STEVENS POINT  PTCLDY    11   3  72 CALM      30.28S
WAUPACA        PTCLDY    19   8  62 CALM      30.30R
WAUTOMA        PTCLDY    15   6  67 CALM      30.29F
WISC RAPIDS    CLOUDY    14   3  61 CALM      30.28R
CAMP DOUGLAS   CLOUDY    18  10  71 S5        30.25F WCI  11
$$

WIZ011>013-019>022-031-037>040-048>050-310500-
NORTHEAST WISCONSIN

CITY           SKY/WX    TMP DP  RH WIND       PRES   REMARKS
ANTIGO         MOCLDY    11   5  76 S3        30.21F
SHAWANO        CLOUDY    19   8  60 CALM      30.29F
OCONTO         CLOUDY    19  10  69 MISG      30.31S
STURGEON BAY   CLOUDY    18   9  68 S9        30.31F WCI   6
GREEN BAY      PTCLDY    19  12  74 CALM      30.31S
MANITOWOC      CLOUDY    21  13  71 S5        30.32F WCI  15
APPLETON       MOCLDY    18   9  68 SW3       30.29F
CLINTONVILLE   MOCLDY    16   7  67 CALM      30.29F
OSHKOSH        MOCLDY    17  10  74 S10       30.28F WCI   5
$$

WIZ032>034-041-042-053>061-310500-
SOUTHWEST WISCONSIN

CITY           SKY/WX    TMP DP  RH WIND       PRES   REMARKS
LA CROSSE      CLOUDY    25  12  58 S10       30.28S WCI  15
SPARTA         CLOUDY    22  10  60 SW3       30.27F
VIROQUA        CLOUDY    22  13  68 S5        30.25S WCI  16
BOSCOBEL       CLOUDY    20  13  74 CALM      30.31F
PRAIRIE DU CHI CLOUDY    21  11  66 CALM      30.31F
PLATTEVILLE    CLOUDY    22  17  78 S8        30.30F WCI  13
$$

WIZ056-057-062-063-064-067-068-310500-
SOUTH CENTRAL WISCONSIN

CITY           SKY/WX    TMP DP  RH WIND       PRES   REMARKS
REEDSBURG      CLOUDY    19  11  69 S5        30.28F WCI  12
BARABOO/DELLS  MOCLDY    17  10  72 S6        30.28F WCI   9
LONE ROCK      CLOUDY    17  10  74 CALM      30.32F
MINERAL POINT  CLOUDY    23  14  68 S6        30.29F WCI  16
MADISON        PTCLDY    19   9  65 S5        30.32F WCI  12
MIDDLETON      MOCLDY    19  10  68 S3        30.32F
WATERTOWN      CLEAR     16  10  80 SW3       30.32F
MONROE         CLOUDY    19  16  86 S8        30.31F WCI   9
JANESVILLE     CLEAR     21  14  73 S6        30.34F WCI  14
$$

WIZ051-052-058>065-066-070>072-310500-
SOUTHEAST WISCONSIN

CITY           SKY/WX    TMP DP  RH WIND       PRES   REMARKS
MILWAUKEE      PTCLDY    21  10  62 SW10      30.34F WCI  10
WAUKESHA       CLEAR     18  10  73 SW6       30.34S WCI   9
MILWAUKEE/TIMM PTCLDY    21  10  63 SW8       30.34F WCI  12
RACINE         CLOUDY    21  11  65 SW7       30.36F WCI  12
BURLINGTON     CLEAR     12   9  87 SW3       30.34F
KENOSHA        PTCLDY    20  12  71 SW8       30.35F WCI  10
FOND DU LAC    CLEAR     18   9  68 SW7       30.30F WCI   9
SHEBOYGAN      PTCLDY    19  11  70 SW7       30.31F WCI  10
WEST BEND      PTCLDY    18  10  73 CALM      30.31F
JUNEAU         CLEAR     15  10  77 S7        30.32S WCI   6
$$

LSZ147-162-310500-
LAKE SUPERIOR

STATION/POSITION TIME  TEMP    WIND        PRES    WAVE
                       AIR SEA DIR/SP/G            HT/PER
                 (UTC) (F)     (DEG/KT/KT) (MB)    (FT/S)
DEVILS ISLAND    0400   20     230/ 14/ 18 1023.7F
PORT WING        0340   18     210/  3/  5 1023.0F
SAXON HARBOR     0300   20     200/  6/ 12 1023.7R
$$

LMZ867-665-643>646-310500-
LAKE MICHIGAN

STATION/POSITION TIME  TEMP    WIND        PRES    WAVE
                       AIR SEA DIR/SP/G            HT/PER
                 (UTC) (F)     (DEG/KT/KT) (MB)    (FT/S)
NORTHPORT PIER   0316   17     180/  2/  8 1026.1F
SISTER BAY       0313   18     210/  8/  9   N/A
KEWAUNEE LAKESHO 0300   20     200/  7/ 10 1025.8F
SHEBOYGAN LAKESH 0400   22     220/ 10/ 12 1028.1F
PORT WASHINGTON  0300   22     240/  5/  7 1028.4F
MILWAUKEE LAKESH 0300   24     210/  9/ 10   N/A
KENOSHA   LAKESH 0400   23     220/  8/ 11 1027.8F
$$

TC  - TEMPERATURE IN CELSIUS
VSB - VISIBILITY IN STATUTE MILES
WCI - WIND CHILL INDEX
HX  - HEAT INDEX



USA.gov is the U.S. government's official web portal to all federal, state and local government web resources and services.